Defiance, OH

9:49 AM EST on February 24, 2017 (GMT -0500)
Defiance Memorial

Weather History for KDFI - July, 2013

Change the Weather History Date:

Monday, July 22, 2013

  Actual Average Record
Temperature  
Mean Temperature 72 °F -  
Max Temperature 80 °F 84 °F 99 °F (1983)
Min Temperature 66 °F 61 °F 46 °F (1970)
Cooling Degree Days 8    
Growing Degree Days 22 (Base 50)    
Moisture  
Dew Point 65 °F    
Average Humidity 82    
Maximum Humidity 94    
Minimum Humidity 62    
Precipitation  
Precipitation 0.49 in - - ()
Sea Level Pressure  
Sea Level Pressure 29.87 in    
Wind  
Wind Speed 6 mph (ENE)    
Max Wind Speed 13 mph    
Max Gust Speed -    
Visibility 7 miles    
Events Rain    
Averages and records for this station are not official NWS values.
T = Trace of Precipitation, MM = Missing Value Source: NWS Daily Summary

Daily Weather History Graph

Daily Weather History Graph

Search for Another Location

Airport or City:

Trip Planner

Search our weather history database for the weather conditions in past years. The results will help you decide how hot, cold, wet, or windy it might be!

Date:

Astronomy

Jul. 22, 2013 Rise Set
Actual Time 6:23 AM EDT 9:04 PM EDT
Civil Twilight 5:51 AM EDT 9:36 PM EDT
Nautical Twilight 5:11 AM EDT 10:16 PM EDT
Astronomical Twilight 4:25 AM EDT 11:01 PM EDT
Moon 8:48 PM EDT (7/22) 6:19 AM EDT (7/22)
Length of Visible Light 15h 44m
Length of Day
14h 40m
Full, 100% of the Moon is Illuminated
Jul 22
Full
Jul 22
Full
Jul 29
Last Quarter
Aug 6
New
Aug 14
First Quarter

Hourly Weather History & Observations

Time (EDT) Temp. Dew Point Humidity Pressure Visibility Wind Dir Wind Speed Gust Speed Precip Events Conditions
12:53 AM 73.0 °F 63.0 °F 71% 29.92 in 10.0 mi ESE 6.9 mph - N/A   Clear
1:53 AM 72.0 °F 61.0 °F 68% 29.91 in 10.0 mi East 6.9 mph - N/A   Clear
2:53 AM 71.1 °F 63.0 °F 75% 29.91 in 10.0 mi East 4.6 mph - N/A   Clear
3:53 AM 70.0 °F 63.0 °F 78% 29.89 in 10.0 mi ENE 4.6 mph - N/A   Clear
4:53 AM 71.1 °F 62.1 °F 73% 29.89 in 10.0 mi North 12.7 mph - N/A   Overcast
5:25 AM 71.6 °F 62.6 °F 73% 29.91 in 10.0 mi North 9.2 mph - 0.00 in Rain Light Rain
5:35 AM 69.8 °F 64.4 °F 83% 29.91 in 10.0 mi North 11.5 mph - 0.00 in Rain Light Rain
5:53 AM 69.1 °F 64.0 °F 84% 29.90 in 10.0 mi North 8.1 mph - 0.00 in Rain Light Rain
6:27 AM 66.2 °F 64.4 °F 94% 29.92 in 2.0 mi NNE 4.6 mph - 0.12 in Rain Heavy Rain
6:43 AM 66.2 °F 64.4 °F 94% 29.92 in 2.5 mi NNW 4.6 mph - 0.21 in Rain Heavy Rain
6:53 AM 66.9 °F 64.0 °F 90% 29.91 in 4.0 mi NNE 5.8 mph - 0.24 in Rain Rain
7:02 AM 66.2 °F 64.4 °F 94% 29.91 in 2.0 mi NNE 10.4 mph - 0.07 in Rain Heavy Rain
7:17 AM 66.2 °F 64.4 °F 94% 29.90 in 3.0 mi NE 6.9 mph - 0.12 in Rain Rain
7:53 AM 66.9 °F 64.0 °F 90% 29.90 in 5.0 mi NE 3.5 mph - 0.15 in Rain Light Rain
8:53 AM 66.9 °F 64.9 °F 93% 29.89 in 3.0 mi NE 4.6 mph - 0.05 in Rain Light Rain
9:53 AM 69.1 °F 66.9 °F 93% 29.88 in 5.0 mi ESE 8.1 mph - 0.02 in Rain Light Rain
10:26 AM 69.8 °F 66.2 °F 88% 29.88 in 4.0 mi ESE 8.1 mph - 0.01 in Rain Light Rain
10:53 AM 71.1 °F 66.9 °F 87% 29.88 in 7.0 mi East 4.6 mph - 0.01 in Rain Light Rain
11:53 AM 72.0 °F 68.0 °F 87% 29.88 in 10.0 mi ESE 5.8 mph - 0.00 in Rain Light Rain
12:17 PM 71.6 °F 68.0 °F 88% 29.89 in 10.0 mi ESE 4.6 mph - 0.00 in Rain Light Rain
12:53 PM 72.0 °F 68.0 °F 87% 29.88 in 7.0 mi East 5.8 mph - 0.01 in Rain Light Rain
1:53 PM 73.0 °F 66.9 °F 81% 29.86 in 10.0 mi East 3.5 mph - 0.01 in   Partly Cloudy
2:53 PM 75.9 °F 66.0 °F 71% 29.85 in 10.0 mi North 6.9 mph - N/A   Overcast
3:53 PM 78.1 °F 68.0 °F 71% 29.83 in 10.0 mi ESE 3.5 mph - N/A   Mostly Cloudy
4:53 PM 79.0 °F 64.9 °F 62% 29.81 in 10.0 mi East 4.6 mph - N/A   Partly Cloudy
5:53 PM 79.0 °F 64.9 °F 62% 29.81 in 10.0 mi East 4.6 mph - N/A   Scattered Clouds
6:53 PM 79.0 °F 66.0 °F 64% 29.79 in 10.0 mi East 5.8 mph - N/A   Clear
7:53 PM 78.1 °F 66.0 °F 66% 29.78 in 10.0 mi East 4.6 mph - N/A   Clear
8:53 PM 73.9 °F 66.9 °F 79% 29.78 in 10.0 mi Calm Calm - N/A   Clear
9:53 PM 71.1 °F 66.9 °F 87% 29.80 in 8.0 mi Calm Calm - 0.00 in   Clear
10:53 PM 68.0 °F 66.0 °F 93% 29.81 in 2.0 mi Calm Calm - 0.00 in   Clear
11:00 PM 69.8 °F 66.2 °F 88% 29.81 in 3.0 mi Calm Calm - N/A   Clear
11:53 PM 68.0 °F 64.9 °F 90% 29.82 in 4.0 mi Calm Calm - N/A   Clear